| time (UTC) | temp F | wind direction | speed MPH | gust MPH | rain 1hr in | rain 24hr in | rain mn in | humidity % | barometer mb |
| 20260503225323 | 64 | 180 | 6.0 | 14.0 | 0.00 | 0.00 | 0.00 | 17 | |
| 20260503224322 | 63 | 180 | 11.0 | 17.0 | 0.00 | 0.00 | 0.00 | 16 | |
| 20260503223320 | 63 | 180 | 8.0 | 16.0 | 0.00 | 0.00 | 0.00 | 17 | |
| 20260503220317 | 63 | 180 | 6.0 | 18.0 | 0.00 | 0.00 | 0.00 | 21 | |
| 20260503215316 | 63 | 180 | 5.0 | 13.0 | 0.00 | 0.00 | 0.00 | 20 | |
| 20260503214315 | 62 | 180 | 9.0 | 16.0 | 0.00 | 0.00 | 0.00 | 16 | |
| 20260503213314 | 63 | 180 | 11.0 | 11.0 | 0.00 | 0.00 | 0.00 | 17 | |
| 20260503212313 | 63 | 180 | 8.0 | 15.0 | 0.00 | 0.00 | 0.00 | 21 | |
| 20260503211312 | 62 | 180 | 7.0 | 13.0 | 0.00 | 0.00 | 0.00 | 18 | |
| 20260503203308 | 62 | 180 | 7.0 | 10.0 | 0.00 | 0.00 | 0.00 | 19 | |
| 20260503201305 | 61 | 180 | 12.0 | 16.0 | 0.00 | 0.00 | 0.00 | 18 | |
| 20260503200305 | 61 | 180 | 8.0 | 15.0 | 0.00 | 0.00 | 0.00 | 18 | |
| 20260503195305 | 60 | 180 | 11.0 | 17.0 | 0.00 | 0.00 | 0.00 | 18 | |
| 20260503193302 | 60 | 180 | 7.0 | 22.0 | 0.00 | 0.00 | 0.00 | 20 | |
| 20260503192301 | 60 | 180 | 10.0 | 16.0 | 0.00 | 0.00 | 0.00 | 18 | |
| 20260503190259 | 60 | 180 | 5.0 | 12.0 | 0.00 | 0.00 | 0.00 | 21 | |
| 20260503185258 | 60 | 180 | 3.0 | 13.0 | 0.00 | 0.00 | 0.00 | 20 | |
| 20260503183256 | 60 | 180 | 5.0 | 10.0 | 0.00 | 0.00 | 0.00 | 17 | |
| 20260503182255 | 59 | 180 | 7.0 | 16.0 | 0.00 | 0.00 | 0.00 | 16 | |
| 20260503181254 | 59 | 180 | 4.0 | 14.0 | 0.00 | 0.00 | 0.00 | 15 | |
| 20260503180253 | 59 | 180 | 11.0 | 17.0 | 0.00 | 0.00 | 0.00 | 15 | |
| 20260503175252 | 59 | 180 | 11.0 | 13.0 | 0.00 | 0.00 | 0.00 | 14 | |
| 20260503174251 | 59 | 180 | 8.0 | 16.0 | 0.00 | 0.00 | 0.00 | 13 | |
| 20260503173250 | 58 | 180 | 10.0 | 15.0 | 0.00 | 0.00 | 0.00 | 15 | |
| 20260503172249 | 57 | 180 | 4.0 | 15.0 | 0.00 | 0.00 | 0.00 | 11 | |
| 20260503170245 | 57 | 180 | 11.0 | 19.0 | 0.00 | 0.00 | 0.00 | 10 | |
| 20260503150232 | 54 | 180 | 8.0 | 11.0 | 0.00 | 0.00 | 0.00 | 41 | |
| 20260503140226 | 53 | 180 | 8.0 | 10.0 | 0.00 | 0.00 | 0.00 | 49 | |
| 20260503130216 | 49 | 180 | 3.0 | 5.0 | 0.00 | 0.00 | 0.00 | 62 | |
| 20260503120208 | 44 | 180 | 3.0 | 5.0 | 0.00 | 0.00 | 0.00 | 74 | |
| 20260503110201 | 40 | 180 | 0.0 | 0.0 | 0.00 | 0.00 | 0.00 | 81 | |
| 20260503090150 | 41 | 180 | 0.0 | 0.0 | 0.00 | 0.00 | 0.00 | 75 | |
| 20260503081144 | 44 | 180 | 0.0 | 0.0 | 0.00 | 0.00 | 0.00 | 73 | |
| 20260503080144 | 45 | 180 | 0.0 | 0.0 | 0.00 | 0.00 | 0.00 | 73 | |
| 20260503072140 | 46 | 180 | 0.0 | 0.0 | 0.00 | 0.00 | 0.00 | 69 | |
| 20260503071138 | 46 | 180 | 0.0 | 0.0 | 0.00 | 0.00 | 0.00 | 69 | |
| 20260503070137 | 47 | 180 | 0.0 | 0.0 | 0.00 | 0.00 | 0.00 | 68 | |
| 20260503060133 | 49 | 180 | 0.0 | 0.0 | 0.00 | 0.00 | 0.00 | 68 | |
| 20260503053129 | 50 | 180 | 0.0 | 0.0 | 0.00 | 0.00 | 0.00 | 67 | |
| 20260503052127 | 50 | 180 | 0.0 | 0.0 | 0.00 | 0.00 | 0.00 | 66 | |
| 20260503051127 | 50 | 180 | 0.0 | 0.0 | 0.00 | 0.00 | 0.00 | 66 | |
| 20260503043119 | 51 | 180 | 0.0 | 8.0 | 0.00 | 0.00 | 0.00 | 63 | |
| 20260503042119 | 51 | 180 | 0.0 | 4.0 | 0.00 | 0.00 | 0.00 | 68 | |
| 20260503041117 | 51 | 180 | 0.0 | 0.0 | 0.00 | 0.00 | 0.00 | 66 | |
| 20260503040117 | 51 | 180 | 0.0 | 0.0 | 0.00 | 0.00 | 0.00 | 65 | |
| 20260503035115 | 51 | 180 | 0.0 | 0.0 | 0.00 | 0.00 | 0.00 | 64 | |
| 20260503034114 | 51 | 180 | 0.0 | 0.0 | 0.00 | 0.00 | 0.00 | 63 | |
| 20260503032113 | 52 | 180 | 0.0 | 0.0 | 0.00 | 0.00 | 0.00 | 68 | |
| 20260503031112 | 52 | 180 | 0.0 | 0.0 | 0.00 | 0.00 | 0.00 | 62 | |
| 20260503025110 | 54 | 180 | 0.0 | 0.0 | 0.00 | 0.00 | 0.00 | 58 | |
| 20260503024109 | 55 | 180 | 0.0 | 2.0 | 0.00 | 0.00 | 0.00 | 50 | |
| 20260503023108 | 56 | 180 | 3.0 | 8.0 | 0.00 | 0.00 | 0.00 | 46 | |
| 20260503022107 | 57 | 180 | 6.0 | 12.0 | 0.00 | 0.00 | 0.00 | 44 | |
| 20260503021104 | 57 | 180 | 5.0 | 9.0 | 0.00 | 0.00 | 0.00 | 42 | |
| 20260503015101 | 58 | 180 | 0.0 | 12.0 | 0.00 | 0.00 | 0.00 | 37 | |
| 20260503014101 | 58 | 180 | 10.0 | 9.0 | 0.00 | 0.00 | 0.00 | 34 | |
| 20260503013059 | 58 | 180 | 6.0 | 10.0 | 0.00 | 0.00 | 0.00 | 33 | |
| 20260503012058 | 59 | 180 | 2.0 | 10.0 | 0.00 | 0.00 | 0.00 | 34 | |
| 20260503011058 | 59 | 180 | 8.0 | 9.0 | 0.00 | 0.00 | 0.00 | 32 | |
| 20260503010056 | 59 | 180 | 4.0 | 8.0 | 0.00 | 0.00 | 0.00 | 31 | |
| 20260503005056 | 60 | 180 | 5.0 | 11.0 | 0.00 | 0.00 | 0.00 | 31 | |
| 20260503001051 | 60 | 180 | 9.0 | 8.0 | 0.00 | 0.00 | 0.00 | 27 | |
| 20260503000050 | 61 | 180 | 5.0 | 8.0 | 0.00 | 0.00 | 0.00 | 26 | |
| 20260502235049 | 60 | 180 | 3.0 | 9.0 | 0.00 | 0.00 | 0.00 | 27 | |
| 20260502234047 | 61 | 180 | 7.0 | 9.0 | 0.00 | 0.00 | 0.00 | 28 | |
| 20260502231039 | 62 | 180 | 5.0 | 11.0 | 0.00 | 0.00 | 0.00 | 28 | |
| 20260502230038 | 62 | 180 | 5.0 | 10.0 | 0.00 | 0.00 | 0.00 | 27 |